Weather History for ESNQ - April, 2013

Change the Weather History Date:

Friday, April 26, 2013

  Actual Average Record
Temperature  
Mean Temperature 31 °F -  
Max Temperature 39 °F - - ()
Min Temperature 23 °F - - ()
Degree Days  
Heating Degree Days 34    
Moisture  
Dew Point 22 °F    
Average Humidity 65    
Maximum Humidity 93    
Minimum Humidity 49    
Precipitation  
Precipitation 0.00 in - - ()
Sea Level Pressure  
Sea Level Pressure 29.57 in    
Wind  
Wind Speed 5 mph ()    
Max Wind Speed 12 mph    
Max Gust Speed -    
Visibility 6.2 miles    
Events Snow    
T = Trace of Precipitation, MM = Missing Value Source: Averaged Metar Reports

Daily Weather History Graph

Daily Weather History Graph

Search for Another Location

Airport or City:

Trip Planner

Search our weather history database for the weather conditions in past years. The results will help you decide how hot, cold, wet, or windy it might be!

Date:

Astronomy

Apr. 26, 2013 Rise Set
Actual Time 4:00 AM CEST 9:15 PM CEST
Civil Twilight 2:32 AM CEST 10:46 PM CEST
Nautical Twilight Sun does not set Sun does not set
Astronomical Twilight Sun does not set Sun does not set
Moon 11:03 PM CEST (4/26) 3:57 AM CEST (4/26)
Length of Visible Light 20h 13m
Length of Day
17h 15m
Full, 100% of the Moon is Illuminated
Apr 26
Full
May 2
Last Quarter
May 10
New
May 18
First Quarter
May 25
Full

Hourly Weather History & Observations

Time (CEST) Temp. Windchill Dew Point Humidity Pressure Visibility Wind Dir Wind Speed Gust Speed Precip Events Conditions
12:20 AM 28.4 °F 23.3 °F 21.2 °F 74% 29.59 in 6.2 mi SSW 4.6 mph - N/A   Scattered Clouds
12:50 AM 26.6 °F 20.0 °F 21.2 °F 80% 29.59 in 6.2 mi SW 5.8 mph - N/A   Scattered Clouds
1:20 AM 26.6 °F 21.2 °F 21.2 °F 80% 29.59 in 6.2 mi SW 4.6 mph - N/A   Scattered Clouds
1:50 AM 26.6 °F - 21.2 °F 80% 29.59 in 6.2 mi SSW 2.3 mph - N/A   Scattered Clouds
2:20 AM 24.8 °F 20.5 °F 21.2 °F 86% 29.59 in 6.2 mi SSW 3.5 mph - N/A   Unknown
2:50 AM 24.8 °F 19.1 °F 19.4 °F 80% 29.59 in 6.2 mi West 4.6 mph - N/A   Unknown
3:20 AM 24.8 °F 19.1 °F 19.4 °F 80% 29.56 in 6.2 mi SSW 4.6 mph - N/A   Partly Cloudy
3:50 AM 23.0 °F 17.0 °F 19.4 °F 86% 29.56 in 6.2 mi NW 4.6 mph - N/A   Unknown
4:20 AM 23.0 °F - 21.2 °F 93% 29.56 in 6.2 mi South 2.3 mph - N/A   Partly Cloudy
4:50 AM 24.8 °F - 19.4 °F 80% 29.56 in 6.2 mi South 1.2 mph - N/A   Scattered Clouds
5:20 AM 24.8 °F - 19.4 °F 80% 29.56 in 6.2 mi South 2.3 mph - N/A   Overcast
5:50 AM 26.6 °F - 21.2 °F 80% 29.56 in 6.2 mi SSW 2.3 mph - N/A   Mostly Cloudy
6:20 AM 26.6 °F 21.2 °F 21.2 °F 80% 29.56 in 6.2 mi SW 4.6 mph - N/A   Mostly Cloudy
6:50 AM 30.2 °F - 23.0 °F 75% 29.56 in 6.2 mi Calm Calm - N/A   Mostly Cloudy
7:20 AM 32.0 °F - 23.0 °F 69% 29.56 in 6.2 mi Calm Calm - N/A   Mostly Cloudy
7:50 AM 33.8 °F 30.8 °F 23.0 °F 65% 29.56 in 6.2 mi NNE 3.5 mph - N/A   Mostly Cloudy
8:20 AM 33.8 °F 30.8 °F 23.0 °F 65% 29.56 in 6.2 mi North 3.5 mph - N/A   Mostly Cloudy
8:50 AM 35.6 °F 31.7 °F 24.8 °F 65% 29.56 in 6.2 mi NE 4.6 mph - N/A   Mostly Cloudy
9:20 AM 35.6 °F 30.7 °F 24.8 °F 65% 29.56 in 6.2 mi NNE 5.8 mph - N/A   Mostly Cloudy
9:50 AM 37.4 °F 33.8 °F 23.0 °F 56% 29.56 in 6.2 mi NNE 4.6 mph - N/A   Scattered Clouds
10:20 AM 37.4 °F 33.8 °F 23.0 °F 56% 29.56 in 6.2 mi NNE 4.6 mph - N/A   Scattered Clouds
10:50 AM 37.4 °F 33.8 °F 24.8 °F 60% 29.56 in 6.2 mi North 4.6 mph - N/A   Mostly Cloudy
11:20 AM 37.4 °F 32.1 °F 23.0 °F 56% 29.56 in 6.2 mi NNE 6.9 mph - N/A   Scattered Clouds
11:50 AM 37.4 °F 32.8 °F 23.0 °F 56% 29.56 in 6.2 mi NNE 5.8 mph - N/A Snow Snow
12:20 PM 39.2 °F 33.0 °F 23.0 °F 52% 29.56 in 6.2 mi NE 9.2 mph - N/A   Unknown
12:50 PM 37.4 °F 30.8 °F 23.0 °F 56% 29.56 in 6.2 mi East 9.2 mph - N/A Snow Snow Showers
1:20 PM 37.4 °F 30.3 °F 24.8 °F 60% 29.56 in 6.2 mi East 10.4 mph - N/A Snow Snow Showers
1:50 PM 37.4 °F 33.8 °F 23.0 °F 56% 29.56 in 6.2 mi North 4.6 mph - N/A Snow Snow Showers
2:20 PM 39.2 °F 34.2 °F 21.2 °F 49% 29.56 in 6.2 mi North 6.9 mph - N/A   Overcast
2:50 PM 37.4 °F 30.8 °F 23.0 °F 56% 29.56 in 6.2 mi NNE 9.2 mph - N/A   Overcast
3:20 PM 37.4 °F 31.4 °F 23.0 °F 56% 29.56 in 6.2 mi North 8.1 mph - N/A   Overcast
3:50 PM 39.2 °F 35.0 °F 21.2 °F 49% 29.56 in 6.2 mi NE 5.8 mph - N/A   Overcast
4:20 PM 37.4 °F 32.1 °F 21.2 °F 52% 29.56 in 6.2 mi NE 6.9 mph - N/A   Overcast
4:50 PM 37.4 °F 30.8 °F 21.2 °F 52% 29.56 in 6.2 mi North 9.2 mph - N/A   Overcast
5:20 PM 39.2 °F 32.5 °F 21.2 °F 49% 29.59 in 6.2 mi NNE 10.4 mph - N/A   Overcast
5:50 PM 37.4 °F 31.4 °F 21.2 °F 52% 29.59 in 6.2 mi NNE 8.1 mph - N/A   Overcast
6:20 PM 37.4 °F 31.4 °F 21.2 °F 52% 29.59 in 6.2 mi North 8.1 mph - N/A   Overcast
6:50 PM 37.4 °F 29.8 °F 21.2 °F 52% 29.59 in 6.2 mi NNE 11.5 mph - N/A   Partly Cloudy
7:20 PM 35.6 °F 28.6 °F 19.4 °F 52% 29.59 in 6.2 mi North 9.2 mph - N/A   Unknown
7:50 PM 33.8 °F 27.0 °F 19.4 °F 56% 29.59 in - North 8.1 mph - N/A   Clear
8:20 PM 32.0 °F 25.6 °F 21.2 °F 64% 29.59 in - North 6.9 mph - N/A   Clear
9:20 PM 32.0 °F 25.6 °F 21.2 °F 64% 29.59 in - NNW 6.9 mph - N/A   Clear
9:50 PM 32.0 °F 26.4 °F 21.2 °F 64% 29.59 in 6.2 mi NNW 5.8 mph - N/A   Overcast
10:20 PM 32.0 °F 25.6 °F 21.2 °F 64% 29.59 in 6.2 mi NNW 6.9 mph - N/A   Overcast
10:50 PM 32.0 °F 26.4 °F 23.0 °F 69% 29.59 in 6.2 mi NNW 5.8 mph - N/A   Overcast
11:20 PM 30.2 °F 24.3 °F 23.0 °F 75% 29.59 in 6.2 mi NNW 5.8 mph - N/A   Overcast
11:50 PM 32.0 °F 25.6 °F 24.8 °F 75% 29.62 in 6.2 mi NNW 6.9 mph - N/A   Overcast